Montpelier, VT

8:19 AM EST on November 21, 2019 (GMT -0500)
Knapp State

Weather History for KMPV - September, 2019

Change the Weather History Date:

Wednesday, September 25, 2019

  Actual Average Record
Temperature  
Mean Temperature 58 °F 54 °F  
Max Temperature 66 °F 65 °F 88 °F (2017)
Min Temperature 49 °F 43 °F 24 °F (1963)
Degree Days  
Heating Degree Days 8 12  
Month to date heating degree days 187 183  
Since 1 July heating degree days 255 291  
Cooling Degree Days 0 0  
Month to date cooling degree days 9 16  
Year to date cooling degree days 220 260  
Growing Degree Days 8 (Base 50)    
Moisture  
Dew Point 49 °F    
Average Humidity 82    
Maximum Humidity 96    
Minimum Humidity 54    
Precipitation  
Precipitation 0.00 in 0.12 in 2.10 in (2001)
Month to date precipitation 2.64 2.54  
Year to date precipitation 37.44 27.34  
Sea Level Pressure  
Sea Level Pressure 29.89 in    
Wind  
Wind Speed 4 mph ()    
Max Wind Speed 12 mph    
Max Gust Speed 15 mph    
Visibility 10.0 miles    
Events      
T = Trace of Precipitation, MM = Missing Value Source: Averaged Metar Reports

Daily Weather History Graph

Daily Weather History Graph

Search for Another Location

Airport or City:

Astronomy

Sep. 25, 2019 Rise Set
Actual Time 6:40 AM EDT 6:42 PM EDT
Civil Twilight 6:11 AM EDT 7:11 PM EDT
Nautical Twilight 5:37 AM EDT 7:45 PM EDT
Astronomical Twilight 5:03 AM EDT 8:19 PM EDT
Moon 2:19 AM EDT (9/25) 5:22 PM EDT (9/25)
Length of Visible Light 12h 59m
Length of Day
12h 01m
Waning Crescent, 14% of the Moon is Illuminated
Sep 25
Waning Crescent
Sep 28
New
Oct 5
First Quarter
Oct 13
Full
Oct 21
Last Quarter

Hourly Weather History & Observations

Time (EDT) Temp. Dew Point Humidity Pressure Visibility Wind Dir Wind Speed Gust Speed Precip Events Conditions
12:51 AM 53.1 °F 48.9 °F 86% 29.87 in 10.0 mi WNW 4.6 mph - N/A   Overcast
1:51 AM 53.1 °F 48.9 °F 86% 29.87 in 10.0 mi WNW 4.6 mph - N/A   Overcast
2:02 AM 52.0 °F 48.9 °F 89% 29.86 in 10.0 mi WNW 4.6 mph - N/A   Overcast
2:51 AM 52.0 °F 48.0 °F 86% 29.86 in 10.0 mi WNW 8.1 mph - N/A   Overcast
3:51 AM 52.0 °F 48.9 °F 89% 29.86 in 10.0 mi NW 3.5 mph - N/A   Overcast
3:59 AM 52.0 °F 48.9 °F 89% 29.86 in 10.0 mi NW 3.5 mph - N/A   Overcast
4:31 AM 52.0 °F 48.9 °F 89% 29.88 in 10.0 mi WNW 6.9 mph - N/A   Overcast
4:51 AM 52.0 °F 48.9 °F 89% 29.89 in 10.0 mi NW 6.9 mph - N/A   Overcast
5:07 AM 52.0 °F 48.9 °F 89% 29.89 in 10.0 mi NNW 4.6 mph - N/A   Overcast
5:27 AM 52.0 °F 48.9 °F 89% 29.89 in 10.0 mi NNW 5.8 mph - N/A   Overcast
5:51 AM 52.0 °F 48.9 °F 89% 29.90 in 10.0 mi Calm Calm - N/A   Overcast
6:51 AM 52.0 °F 50.0 °F 93% 29.91 in 10.0 mi Calm Calm - N/A   Overcast
7:51 AM 53.1 °F 48.9 °F 86% 29.92 in 10.0 mi NW 5.8 mph - N/A   Overcast
8:51 AM 54.0 °F 50.0 °F 86% 29.93 in 10.0 mi NNW 4.6 mph - N/A   Overcast
9:51 AM 54.0 °F 48.9 °F 83% 29.93 in 10.0 mi NNW 6.9 mph - N/A   Mostly Cloudy
9:58 AM 55.0 °F 48.9 °F 80% 29.92 in 10.0 mi North 10.4 mph - N/A   Mostly Cloudy
10:10 AM 55.9 °F 48.9 °F 77% 29.92 in 10.0 mi NW 10.4 mph - N/A   Mostly Cloudy
10:51 AM 55.9 °F 48.9 °F 77% 29.94 in 10.0 mi NW 9.2 mph - N/A   Overcast
11:51 AM 55.9 °F 50.0 °F 80% 29.94 in 10.0 mi Calm Calm - N/A   Overcast
12:06 PM 57.9 °F 50.0 °F 75% 29.92 in 10.0 mi Variable 4.6 mph - N/A   Mostly Cloudy
12:51 PM 60.1 °F 48.0 °F 64% 29.91 in 10.0 mi Calm Calm - N/A   Overcast
1:51 PM 62.1 °F 48.9 °F 62% 29.88 in 10.0 mi Calm Calm - N/A   Scattered Clouds
2:51 PM 63.0 °F 48.9 °F 60% 29.86 in 10.0 mi Calm Calm - N/A   Partly Cloudy
3:51 PM 64.9 °F 48.0 °F 54% 29.83 in 10.0 mi South 4.6 mph - N/A   Clear
4:51 PM 64.9 °F 48.9 °F 56% 29.84 in 10.0 mi East 3.5 mph - N/A   Clear
5:51 PM 64.0 °F 48.9 °F 58% 29.85 in 10.0 mi East 3.5 mph - N/A   Clear
6:51 PM 55.0 °F 51.1 °F 86% 29.87 in 10.0 mi Calm Calm - N/A   Clear
7:51 PM 52.0 °F 50.0 °F 93% 29.86 in 10.0 mi Calm Calm - N/A   Clear
8:51 PM 52.0 °F 50.0 °F 93% 29.87 in 10.0 mi Calm Calm - N/A   Clear
9:51 PM 50.0 °F 48.0 °F 93% 29.88 in 10.0 mi Calm Calm - N/A   Clear
10:51 PM 50.0 °F 48.9 °F 96% 29.88 in 10.0 mi Calm Calm - N/A   Clear
11:51 PM 50.0 °F 48.9 °F 96% 29.86 in 10.0 mi Calm Calm - N/A   Clear